AXB786 VABB-VOML

Flight info

Callsign AXB786
Flight time 1h 12m
Altitude 35000
Route VEVAK2A MABTA Q13 IKATI W17 MML
Aircraft B38M/M-SDE1FGHILORVWXY/HB1

Departure

Time 2026-05-04 17:00
Airport Chhatrapati Shivaji Maharaj International Airport (VABB)

Arrival

Time 2026-05-04 18:12
Airport Mangaluru International Airport (VOML)
Time Latitude Longitude Altitude Speed Heading
2026-05-04 16:22 19.09416 72.87284 52 ft 0 kts 299°
2026-05-04 16:47 19.09403 72.87306 49 ft 4 kts 307°
2026-05-04 16:48 19.09339 72.87358 49 ft 4 kts 342°
2026-05-04 16:48 19.09315 72.87363 48 ft 2 kts 359°
2026-05-04 16:49 19.09314 72.87363 47 ft 0 kts 359°
2026-05-04 16:51 19.09340 72.87363 50 ft 7 kts
2026-05-04 16:51 19.09392 72.87406 49 ft 11 kts 51°
2026-05-04 16:51 19.09352 72.87562 52 ft 15 kts 130°
2026-05-04 16:52 19.09216 72.87675 51 ft 6 kts 185°
2026-05-04 16:52 19.09167 72.87673 50 ft 6 kts 164°
2026-05-04 16:53 19.09122 72.87793 49 ft 4 kts 133°
2026-05-04 16:53 19.09120 72.87795 49 ft 0 kts 133°
2026-05-04 16:55 19.09015 72.87807 48 ft 0 kts 178°
2026-05-04 16:55 19.09001 72.87807 50 ft 0 kts 179°
2026-05-04 16:56 19.08963 72.87807 49 ft 12 kts 179°
2026-05-04 16:56 19.08886 72.87736 50 ft 0 kts 265°
2026-05-04 16:59 19.08878 72.87263 53 ft 102 kts 269°
2026-05-04 17:00 19.08853 72.81867 1879 ft 194 kts 265°
2026-05-04 17:00 19.08743 72.76968 4169 ft 236 kts 269°
2026-05-04 17:01 19.08237 72.73368 5643 ft 264 kts 240°
2026-05-04 17:01 19.05089 72.71418 7384 ft 286 kts 185°
2026-05-04 17:02 19.01435 72.73121 8560 ft 304 kts 135°
2026-05-04 17:02 18.97825 72.74970 8767 ft 293 kts 186°
2026-05-04 17:03 18.95780 72.74815 8803 ft 297 kts 185°
2026-05-04 17:03 18.93714 72.74739 9561 ft 296 kts 185°
2026-05-04 17:03 18.89435 72.74604 10711 ft 325 kts 184°
2026-05-04 17:04 18.84805 72.74478 12170 ft 337 kts 183°
2026-05-04 17:04 18.80051 72.74349 13742 ft 347 kts 183°
2026-05-04 17:05 18.75302 72.75164 15160 ft 356 kts 163°
2026-05-04 17:05 18.70528 72.76793 16570 ft 364 kts 163°
2026-05-04 17:06 18.65620 72.78493 17943 ft 373 kts 163°
2026-05-04 17:06 18.63181 72.79340 18535 ft 377 kts 163°
2026-05-04 17:07 18.58157 72.81084 19729 ft 382 kts 163°
2026-05-04 17:07 18.56444 72.81679 20111 ft 385 kts 163°
2026-05-04 17:07 18.53065 72.82851 20860 ft 389 kts 163°
2026-05-04 17:07 18.50482 72.83747 21408 ft 392 kts 163°
2026-05-04 17:08 18.47884 72.84648 21946 ft 395 kts 163°
2026-05-04 17:08 18.42622 72.86472 23004 ft 401 kts 163°
2026-05-04 17:08 18.39964 72.87393 23497 ft 404 kts 163°
2026-05-04 17:09 18.37276 72.88324 23909 ft 407 kts 163°
2026-05-04 17:09 18.34579 72.89258 24341 ft 409 kts 163°
2026-05-04 17:09 18.31865 72.90197 24755 ft 412 kts 163°
2026-05-04 17:10 18.26381 72.92094 25581 ft 417 kts 164°
2026-05-04 17:10 18.18040 72.94977 26786 ft 425 kts 164°
2026-05-04 17:11 18.15232 72.95947 27164 ft 427 kts 164°
2026-05-04 17:11 18.12404 72.96924 27554 ft 429 kts 164°
2026-05-04 17:11 18.06737 72.99050 28293 ft 435 kts 160°
2026-05-04 17:12 18.03913 73.00207 28667 ft 438 kts 161°
2026-05-04 17:12 17.98197 73.02519 29383 ft 442 kts 161°
2026-05-04 17:13 17.89511 73.06023 30322 ft 449 kts 161°
2026-05-04 17:14 17.80693 73.09577 31150 ft 455 kts 161°
2026-05-04 17:14 17.77766 73.10755 31408 ft 458 kts 161°
2026-05-04 17:14 17.71795 73.13158 31935 ft 462 kts 161°
2026-05-04 17:15 17.68794 73.14365 32195 ft 464 kts 161°
2026-05-04 17:15 17.62749 73.16795 32725 ft 468 kts 161°
2026-05-04 17:16 17.56648 73.19245 33236 ft 471 kts 161°
2026-05-04 17:16 17.47418 73.22950 34007 ft 475 kts 161°
2026-05-04 17:17 17.44327 73.24190 34287 ft 475 kts 161°
2026-05-04 17:17 17.35090 73.27892 34892 ft 472 kts 161°
2026-05-04 17:18 17.32028 73.29119 34886 ft 470 kts 161°
2026-05-04 17:19 17.19829 73.34000 34885 ft 469 kts 161°
2026-05-04 17:20 17.08239 73.40187 34882 ft 471 kts 149°
2026-05-04 17:20 16.99943 73.45681 34892 ft 470 kts 149°
2026-05-04 17:21 16.88892 73.52991 34895 ft 470 kts 149°
2026-05-04 17:22 16.83347 73.56599 34901 ft 469 kts 154°
2026-05-04 17:23 16.71784 73.62879 34906 ft 468 kts 154°
2026-05-04 17:24 16.63147 73.67642 34909 ft 468 kts 154°
2026-05-04 17:25 16.51639 73.73978 34918 ft 467 kts 153°
2026-05-04 17:26 16.40171 73.80282 34918 ft 467 kts 154°
2026-05-04 17:27 16.25605 73.87702 34924 ft 466 kts 155°
2026-05-04 17:28 16.13961 73.93597 34916 ft 465 kts 155°
2026-05-04 17:29 15.96498 74.02394 34906 ft 464 kts 155°
2026-05-04 17:31 15.81972 74.09698 34907 ft 464 kts 155°
2026-05-04 17:32 15.67485 74.16970 34912 ft 464 kts 155°
2026-05-04 17:33 15.55876 74.22791 34923 ft 463 kts 155°
2026-05-04 17:34 15.44282 74.28596 34924 ft 463 kts 155°
2026-05-04 17:35 15.29793 74.35840 34924 ft 462 kts 155°
2026-05-04 17:36 15.24001 74.38733 34925 ft 462 kts 155°
2026-05-04 17:36 15.18213 74.41622 34923 ft 462 kts 155°
2026-05-04 17:37 15.12423 74.44511 34930 ft 462 kts 155°
2026-05-04 17:37 15.06640 74.47419 34921 ft 462 kts 155°
2026-05-04 17:38 15.00861 74.50325 34926 ft 462 kts 155°
2026-05-04 17:38 14.95082 74.53228 34920 ft 461 kts 155°
2026-05-04 17:39 14.86421 74.57576 34927 ft 461 kts 155°
2026-05-04 17:39 14.80647 74.60472 34924 ft 461 kts 155°
2026-05-04 17:40 14.74879 74.63364 34927 ft 461 kts 155°
2026-05-04 17:40 14.69151 74.66234 34925 ft 461 kts 155°
2026-05-04 17:41 14.63379 74.69124 34931 ft 461 kts 155°
2026-05-04 17:41 14.57614 74.72009 34927 ft 461 kts 155°
2026-05-04 17:42 14.51806 74.74914 34928 ft 460 kts 155°
2026-05-04 17:42 14.48896 74.76152 34924 ft 458 kts 167°
2026-05-04 17:42 14.45726 74.76638 34933 ft 455 kts 177°
2026-05-04 17:43 14.39439 74.77247 34935 ft 457 kts 176°
2026-05-04 17:43 14.33104 74.77783 34933 ft 457 kts 177°
2026-05-04 17:44 14.26760 74.78285 34928 ft 457 kts 177°
2026-05-04 17:44 14.20413 74.78782 34927 ft 457 kts 177°
2026-05-04 17:45 14.15109 74.79198 34924 ft 456 kts 177°
2026-05-04 17:45 14.07755 74.79774 34920 ft 456 kts 177°
2026-05-04 17:46 14.02502 74.80185 34919 ft 456 kts 177°
2026-05-04 17:46 13.96292 74.80671 34926 ft 440 kts 177°
2026-05-04 17:47 13.90228 74.81145 34917 ft 436 kts 177°
2026-05-04 17:47 13.87213 74.81381 34664 ft 432 kts 177°
2026-05-04 17:47 13.84198 74.81616 33901 ft 438 kts 177°
2026-05-04 17:48 13.81141 74.81855 33015 ft 444 kts 177°
2026-05-04 17:48 13.78033 74.82097 32144 ft 450 kts 177°
2026-05-04 17:48 13.74898 74.82342 31283 ft 455 kts 177°
2026-05-04 17:48 13.71719 74.82590 30446 ft 460 kts 177°
2026-05-04 17:49 13.68517 74.82840 29554 ft 464 kts 177°
2026-05-04 17:49 13.65282 74.83092 28607 ft 467 kts 177°
2026-05-04 17:49 13.62031 74.83346 27676 ft 470 kts 177°
2026-05-04 17:49 13.58753 74.83601 26762 ft 473 kts 177°
2026-05-04 17:50 13.55466 74.83857 25879 ft 474 kts 177°
2026-05-04 17:50 13.52176 74.84113 25025 ft 475 kts 177°
2026-05-04 17:50 13.48873 74.84371 24191 ft 475 kts 177°
2026-05-04 17:50 13.45579 74.84627 23353 ft 475 kts 177°
2026-05-04 17:51 13.42281 74.84884 22440 ft 474 kts 176°
2026-05-04 17:51 13.39022 74.85138 21775 ft 467 kts 176°
2026-05-04 17:51 13.35848 74.85384 21158 ft 460 kts 176°
2026-05-04 17:51 13.32646 74.85633 20553 ft 452 kts 176°
2026-05-04 17:52 13.29568 74.85873 20008 ft 446 kts 176°
2026-05-04 17:52 13.26488 74.86353 19466 ft 438 kts 163°
2026-05-04 17:52 13.23756 74.87553 19043 ft 429 kts 155°
2026-05-04 17:52 13.20920 74.88344 18653 ft 421 kts 173°
2026-05-04 17:53 13.18078 74.88900 18210 ft 413 kts 159°
2026-05-04 17:53 13.15655 74.90387 17796 ft 403 kts 137°
2026-05-04 17:53 13.14021 74.92657 17455 ft 393 kts 114°
2026-05-04 17:53 13.13408 74.95331 17159 ft 382 kts 90°
2026-05-04 17:54 13.13814 74.97976 16940 ft 371 kts 76°
2026-05-04 17:54 13.14063 75.00554 16768 ft 360 kts 98°
2026-05-04 17:54 13.13222 75.02901 16702 ft 347 kts 125°
2026-05-04 17:54 13.11491 75.04531 16644 ft 334 kts 152°
2026-05-04 17:55 13.09400 75.05440 16566 ft 322 kts 155°
2026-05-04 17:55 13.07586 75.06709 16427 ft 311 kts 132°
2026-05-04 17:55 13.06471 75.08533 16335 ft 297 kts 108°
2026-05-04 17:55 13.06206 75.10574 16242 ft 284 kts 83°
2026-05-04 17:56 13.06798 75.12442 16138 ft 272 kts 57°
2026-05-04 17:56 13.08076 75.13836 15766 ft 272 kts 36°
2026-05-04 17:56 13.09688 75.14894 15310 ft 278 kts 31°
2026-05-04 17:56 13.11369 75.15923 14843 ft 284 kts 31°
2026-05-04 17:57 13.13085 75.16969 14378 ft 290 kts 31°
2026-05-04 17:57 13.14842 75.18042 13856 ft 298 kts 31°
2026-05-04 17:57 13.16641 75.19146 13252 ft 306 kts 31°
2026-05-04 17:57 13.18459 75.20262 12648 ft 308 kts 31°
2026-05-04 17:58 13.20288 75.21387 12072 ft 306 kts 31°
2026-05-04 17:58 13.22111 75.22509 11501 ft 303 kts 31°
2026-05-04 17:58 13.23913 75.23620 10946 ft 301 kts 31°
2026-05-04 17:58 13.25700 75.24724 10402 ft 299 kts 31°
2026-05-04 17:59 13.27479 75.25824 9850 ft 298 kts 31°
2026-05-04 17:59 13.29246 75.26918 9251 ft 296 kts 31°
2026-05-04 17:59 13.32755 75.29102 8115 ft 293 kts 31°
2026-05-04 18:00 13.34522 75.30125 7533 ft 290 kts 20°
2026-05-04 18:00 13.36496 75.30355 6959 ft 287 kts 349°
2026-05-04 18:00 13.38271 75.29502 6423 ft 284 kts 318°
2026-05-04 18:00 13.39335 75.27834 5847 ft 282 kts 286°
2026-05-04 18:01 13.39533 75.25859 5468 ft 273 kts 269°
2026-05-04 18:01 13.39317 75.23966 5211 ft 261 kts 257°
2026-05-04 18:01 13.38623 75.22301 4931 ft 250 kts 234°
2026-05-04 18:02 13.35943 75.20327 4429 ft 231 kts 211°
2026-05-04 18:02 13.34591 75.19469 4153 ft 226 kts 219°
2026-05-04 18:02 13.33244 75.18661 3963 ft 225 kts 200°
2026-05-04 18:02 13.31724 75.18247 3953 ft 227 kts 194°
2026-05-04 18:03 13.30175 75.17891 3940 ft 228 kts 194°
2026-05-04 18:03 13.28624 75.17538 3962 ft 230 kts 193°
2026-05-04 18:03 13.27066 75.17188 4145 ft 229 kts 194°
2026-05-04 18:03 13.25503 75.16843 4345 ft 230 kts 194°
2026-05-04 18:04 13.23948 75.16458 4542 ft 230 kts 199°
2026-05-04 18:04 13.22475 75.15825 4413 ft 230 kts 206°
2026-05-04 18:04 13.19584 75.14411 3663 ft 230 kts 207°
2026-05-04 18:05 13.18143 75.13713 3280 ft 229 kts 207°
2026-05-04 18:05 13.16707 75.13021 2877 ft 227 kts 207°
2026-05-04 18:05 13.15288 75.12334 2518 ft 224 kts 207°
2026-05-04 18:05 13.13888 75.11662 2389 ft 223 kts 207°
2026-05-04 18:06 13.11071 75.10313 2390 ft 224 kts 207°
2026-05-04 18:06 13.09660 75.09644 2386 ft 223 kts 207°
2026-05-04 18:06 13.08273 75.08974 2401 ft 223 kts 212°
2026-05-04 18:07 13.07141 75.07941 2402 ft 218 kts 234°
2026-05-04 18:07 13.06299 75.06694 2438 ft 202 kts 240°
2026-05-04 18:07 13.05574 75.05513 2431 ft 193 kts 240°
2026-05-04 18:07 13.04875 75.04351 2418 ft 191 kts 241°
2026-05-04 18:08 13.04179 75.03189 2413 ft 192 kts 240°
2026-05-04 18:08 13.03479 75.02022 2411 ft 192 kts 240°
2026-05-04 18:08 13.02790 75.00872 2391 ft 182 kts 241°
2026-05-04 18:08 13.02154 74.99814 2374 ft 168 kts 241°
2026-05-04 18:09 13.00931 74.97778 2082 ft 167 kts 241°
2026-05-04 18:09 12.99723 74.95765 1683 ft 163 kts 241°
2026-05-04 18:10 12.99160 74.94831 1492 ft 146 kts 242°
2026-05-04 18:10 12.98642 74.93967 1329 ft 140 kts 241°
2026-05-04 18:10 12.98135 74.93121 1142 ft 139 kts 240°
2026-05-04 18:10 12.97627 74.92276 966 ft 139 kts 240°
2026-05-04 18:11 12.97122 74.91433 776 ft 139 kts 240°
2026-05-04 18:11 12.96625 74.90584 594 ft 139 kts 239°
2026-05-04 18:11 12.96109 74.89750 402 ft 137 kts 240°
2026-05-04 18:11 12.95638 74.88961 324 ft 113 kts 238°
2026-05-04 18:12 12.95319 74.88436 323 ft 65 kts 238°
2026-05-04 18:12 12.95126 74.88115 326 ft 50 kts 238°
2026-05-04 18:12 12.94980 74.87874 324 ft 39 kts 239°
2026-05-04 18:12 12.94880 74.87703 324 ft 17 kts 254°
2026-05-04 18:13 12.94945 74.87620 326 ft 16 kts 330°
2026-05-04 18:13 12.95020 74.87551 326 ft 13 kts 275°
2026-05-04 18:13 12.94966 74.87436 326 ft 2 kts 238°
2026-05-04 18:14 12.94953 74.87414 326 ft 5 kts 240°
2026-05-04 18:14 12.94929 74.87372 326 ft 8 kts 238°
2026-05-04 18:14 12.94893 74.87312 325 ft 11 kts 238°
2026-05-04 18:15 12.94861 74.87258 322 ft 1 kts 263°
2026-05-04 18:15 12.94870 74.87253 324 ft 1 kts 354°
2026-05-04 18:15 12.94889 74.87252 326 ft 5 kts 357°
2026-05-04 18:16 12.94917 74.87250 324 ft 2 kts 356°
2026-05-04 18:16 12.94931 74.87249 325 ft 2 kts 356°
2026-05-04 18:16 12.94937 74.87249 325 ft 0 kts 357°